Location: ??
(35.3149°N, 139.6204°E)
Time: 10:58:00
(UTC+00:00)

Cosmos 773 Rocket - Pass Details

Date: 03 August 2024
Orbit: 742 x 775 km, 74.1° (Epoch: 06 September)

Event Time Altitude Azimuth Distance (km) Brightness Sun altitude
Exits shadow 19:12:03 - 210° (SSW) 2,642 6.3 -8.3°
Reaches altitude 10° 19:13:04 10° 212° (SSW) 2,255 5.9 -8.1°
Maximum altitude 19:18:04 54° 290° (WNW) 909 4.2 -7.2°
Drops below altitude 10° 19:23:08 10° 8° (N) 2,289 7.0 -6.3°
Sets 19:25:35 0° 13° (NNE) 3,223 7.8 -5.9°
